STARLINK-11455, 62463

Orbit data source: Space-Track

STARLINK-11455, 62463 is a payload satellite owned by SpaceX/Seattle (US) in LEO that was launched on Tue, 31 Dec 2024 UTC via an FALCON 9 launch vehicle from the Air Force Eastern Test Range (AFETR). Payloads include a variety of satellites, spacecraft, and rockets equipped with specific instruments for various scientific and technological missions. These include communications satellites like Starlink; space stations such as the ISS; scientific satellites like the Hubble; Earth observation satellites from companies like Planet Labs, Umbra, and HawkEye 360; GPS; miniature CubeSats for education and research; and military/defense satellites.

Loading next visibility...
STARLINK-11455 details
Identifier
62463, 2024-254B
Orbit
LEO
Last TLE update14 hours ago
Origin
Flag of USSpaceX/Seattle (US)
ManufacturerSpaceX/Seattle
MissionOperational Commercial Communications
Bus & MotorSTARLINK V2M, Unknown motor
Mass730 kg wet, ~700 kg dry
Launch date (UTC)
2024-12-31 (1 month ago)
Launch vehicle
FALCON 9
Launch site
Air Force Eastern Test Range (AFETR)
Object type
Payload
Rocket body
Debris
Shape & HBRBox + 2 Pan, 29 m
Radar Cross Section36.964 m², Large (>1 m²)

Expand to show TLE details & history

TLE from 14 hours ago
0 STARLINK-11455
1 62463U 24254B   25035.59638231 -.00001005  00000-0 -29024-5 0  9990
2 62463  43.0019 104.1550 0002250 271.0644  88.9968 15.77862718  6779
Epoch: 2025-02-04T14:18Z
Definitive object data (Epoch: 2025-02-04T14:18:47.431Z)
Latitude-0.00006°
Longitude114.45791°
Altitude336.242 km
Speed7.709 km/s
True Right ascension06h 56m 37s
True Declination0° 00' 00"
Sunlit
Object was in full shadow at TLE epoch
Visualization TLE readout
Latitude-10.00603°
Longitude-58.37852°
Altitude337.859 km
Speed7.707 km/s
Apparent Right ascension19h 10m 24s
Apparent Declination-24° 29' 38"
Sunlit
Object is in daylight
Visualization observer readout
Local Sidereal Time06:50:18
Azimuth343.189° N
Elevation-74.011°
Doppler factor1
Orbital elements
Apogee altitude339.996 km
Perigee altitude336.973 km
Semi-major axis6,716.621 km
Eccentricity0.000225
Inclination43.0019°
RAAN104.155°
Arg. of periapsis271.0644°
True anomaly89.02258°
Mean anomaly88.9968°
Eccentric anomaly89.00969°
Mean motion3.94291 °/min
BSTAR-0.0000029024
Orbital period91.3 mins
Loading maneuver chart data...
Loading historical data...
Loading historical data...
Loading historical data...
Loading historical data...
Loading historical data...
Loading historical data...
Loading historical data...

STARLINK-11455 Visibility forecast

Observer location: undefined°, undefined

Span
Click to sort rows by Start time (UTC) header in descending order
Start Az.
Max El. time (UTC)
Max El. Az.
Max El.
End time (UTC)
End Az.
4 mins2025-02-05 12:00:24.497Z293.554° NW2025-02-05 12:02:24.497Z75.628° E40.815°2025-02-05 12:04:24.497Z101.068° ESE
|